Weather observations for the past three days for
Minneapolis, Crystal Airport
Imperial (Metric)
Date Time (cdt) Wind (mph) Vis. (mi.) Weather Sky Cond. Temperature (ºF) Relative Humidity Wind Chill (°F) Heat Index (°F) Pressure Precipitation (in)
Air Dwpt 6 hour altimeter (in) sea level (mb) 1 hr 3 hr 6 hr
Max. Min.
24 01:53 Calm 10.00 Fair CLR 64 60.1 87% 29.88 1011.3
24 00:53 Calm 10.00 A Few Clouds FEW070 64.9 61 82.9 64 87% 29.88 1011.4
23 23:53 Calm 10.00 Fair CLR 66 60.1 81% 29.88 1011.3
23 22:53 Calm 10.00 Fair CLR 69.1 59 70% 29.87 1011.1
23 21:53 Calm 10.00 Fair CLR 73 59 62% 29.86 1010.6
23 20:53 NW 3 10.00 Fair CLR 77 59 54% 79 29.84 1010.3
23 19:53 NW 6 10.00 Fair CLR 82 59 46% 82 29.84 1010.1
23 18:53 N 10 G 16 10.00 A Few Clouds FEW060 82.9 57.9 84.9 79 43% 83 29.84 1010.0
23 17:53 NW 14 10.00 A Few Clouds FEW070 FEW085 84 57 40% 83 29.83 1009.9
23 16:53 NW 14 G 24 10.00 Fair CLR 84 57 40% 83 29.83 1009.8
23 15:53 W 17 G 23 10.00 A Few Clouds FEW070 82.9 55.9 40% 82 29.83 1009.8
23 14:53 W 13 G 22 10.00 A Few Clouds FEW055 FEW075 82.9 57 41% 82 29.84 1010.0
23 13:53 NW 10 10.00 Fair CLR 81 60.1 49% 82 29.84 1010.1
23 12:53 W 8 10.00 Fair CLR 79 63 79 57 58% 81 29.85 1010.6
23 11:53 Vrbl 7 10.00 Mostly Cloudy BKN025 75 64 69% 77 29.86 1010.9
23 10:53 W 10 10.00 Overcast BKN020 OVC028 73 64 74% 29.86 1010.9
23 09:53 W 8 10.00 Overcast OVC019 70 62.1 76% 29.86 1011.0
23 08:53 W 6 10.00 Mostly Cloudy BKN021 BKN027 64.9 60.1 84% 29.87 1011.5
23 07:53 Calm 10.00 A Few Clouds FEW010 60.1 55 84% 29.88 1011.6
23 06:53 Calm 10.00 Mostly Cloudy BKN046 57 55 57 53.1 93% 29.87 1011.6
23 05:53 Calm 10.00 Fair CLR 54 52 93% 29.86 1011.1
23 04:53 Calm 10.00 Partly Cloudy SCT048 54 53.1 97% 29.85 1010.7
23 03:53 Calm 10.00 Fair CLR 54 52 93% 29.85 1010.6
23 02:53 Calm 10.00 Fair CLR 55.9 52 87% 29.85 1010.5
23 01:53 NW 6 10.00 Partly Cloudy SCT012 55.9 51.1 84% 29.84 1010.5
23 00:53 N 7 10.00 Overcast OVC011 55.9 51.1 66.9 55.9 84% 29.84 1010.4
22 23:53 N 12 10.00 Overcast OVC009 57 54 90% 29.84 1010.2
22 22:53 N 8 10.00 Overcast OVC010 59 55 87% 29.84 1010.3
22 21:53 N 13 10.00 Overcast OVC007 62.1 59 90% 29.81 1009.3
22 20:53 N 8 10.00 Overcast BKN006 OVC012 64.9 62.1 90% 29.79 1008.4
22 19:53 N 9 10.00 Overcast OVC008 66 63 90% 29.77 1007.9
22 18:53 NW 10 10.00 Overcast OVC008 66.9 63 73.9 66.9 87% 29.77 1008.0 0.29
22 17:53 NW 15 G 20 10.00 Overcast OVC010 68 64 87% 29.78 1008.0
22 16:53 NW 9 10.00 Overcast OVC012 71.1 66 84% 29.77 1007.8
22 15:53 Vrbl 7 10.00 Light Rain BKN006 BKN037 69.1 66.9 93% 29.72 1006.3 0.13 0.29
22 14:53 NW 9 1.50 Heavy Rain Fog/Mist FEW019 BKN024 OVC032 69.1 66.9 93% 29.81 1009.1 0.16
22 13:53 N 8 10.00 Overcast SCT017 SCT022 OVC031 73 66 79% 29.76 1007.5
22 12:53 NW 5 10.00 Overcast FEW018 FEW025 OVC034 73.9 64.9 75 66 74% 29.79 1008.4
22 11:53 N 5 10.00 Overcast BKN019 BKN024 OVC031 73.9 66 76% 29.8 1008.8
22 10:53 N 3 10.00 Overcast OVC014 71.1 64.9 81% 29.81 1009.1
22 09:53 Calm 10.00 Overcast OVC007 69.1 64.9 87% 29.83 1009.8
22 08:53 Calm 10.00 Overcast OVC004 66.9 64.9 93% 29.84 1010.3
22 07:53 N 7 2.00 Fog/Mist OVC004 66 64.9 96% 29.85 1010.4
22 06:53 N 5 9.00 Overcast OVC005 66 64.9 66 64.9 96% 29.86 1010.8 0.2
22 05:53 NW 6 10.00 Overcast OVC005 66 64.9 96% 29.86 1011.0
22 04:53 Calm 10.00 Overcast BKN008 OVC110 66 64 93% 29.85 1010.6
22 03:53 N 3 10.00 Light Rain BKN011 66 64.9 96% 29.87 1011.4 0.02 0.2
22 02:53 E 8 10.00 Light Rain FEW085 SCT120 66 64.9 96% 29.87 1011.2 0.05
22 01:53 E 12 8.00 Light Rain OVC110 66 64 93% 29.91 1012.5 0.13
22 00:53 E 7 4.00 Heavy Rain Fog/Mist SCT006 BKN014 OVC035 66 64.9 69.1 66 96% 29.94 1013.7 0.1 0.29
21 23:53 E 9 5.00 Rain Fog/Mist BKN006 OVC011 66.9 64.9 93% 29.97 1014.7 0.14
21 22:53 E 7 8.00 Light Rain OVC005 66.9 66 97% 29.97 1014.8 0.04
21 21:53 E 7 G 17 10.00 Light Rain OVC007 66.9 64.9 93% 29.99 1015.4 0.01 0.01
21 20:53 NE 10 10.00 Overcast OVC010 68 64.9 90% 30 1015.5
21 19:53 E 9 10.00 Overcast OVC011 69.1 64.9 87% 30 1015.7
21 18:53 E 8 10.00 Overcast OVC011 69.1 64.9 71.1 69.1 87% 30.03 1016.6 0.02
21 17:53 E 7 10.00 Overcast OVC012 70 64.9 84% 30.06 1017.6
21 16:53 E 5 10.00 Overcast OVC012 71.1 66 84% 30.07 1017.9
21 15:53 E 7 10.00 Overcast BKN014 OVC022 70 64.9 84% 30.09 1018.6 0.02
21 14:53 E 6 10.00 Light Rain SCT012 BKN025 OVC110 70 66.9 90% 30.1 1019.1 0.02
21 13:53 E 8 10.00 Light Rain BKN017 OVC100 70 64.9 84% 30.12 1019.8
21 12:53 E 5 10.00 Mostly Cloudy BKN013 BKN120 70 64.9 70 64 84% 30.14 1020.3 0.01
21 11:53 NE 7 10.00 Overcast BKN012 OVC019 70 64.9 84% 30.14 1020.6
21 10:53 NE 7 10.00 Mostly Cloudy BKN010 69.1 64.9 87% 30.15 1020.8
21 09:53 NE 6 10.00 Overcast OVC008 68 64.9 90% 30.16 1021.2 0.01
21 08:53 NE 5 10.00 Overcast OVC007 66.9 64 91% 30.17 1021.4
21 07:53 E 10 10.00 Light Rain OVC005 64.9 64 97% 30.13 1020.2 0.01
21 06:53 E 7 4.00 Light Rain Fog/Mist BKN005 BKN047 OVC110 64 63 66 64 96% 30.17 1021.6 0.08 0.14
21 05:53 E 3 5.00 Rain Fog/Mist OVC007 64 63 96% 30.21 1022.7 0.06
21 04:53 SE 5 10.00 Overcast OVC008 64.9 62.1 90% 30.21 1022.6
21 03:53 E 3 10.00 Overcast OVC009 64.9 62.1 90% 30.19 1022.3
21 02:53 NE 3 10.00 Overcast OVC009 64.9 61 87% 30.21 1023.0
Date Time (cdt) Wind (mph) Vis. (mi.) Weather Sky Cond. Air Dwpt Max. Min. Relative Humidity Wind Chill (°F) Heat Index (°F) altimeter (in) sea level (mb) 1 hr 3 hr 6 hr
6 hour
Temperature (ºF) Pressure Precipitation (in)